Location: Brno
(49.2000°N, 16.6330°E)
Time: 12:38:47
(UTC+02:00)

ISS - Visible Passes

Search period start: 01 April 2015 00:00
Search period end: 11 April 2015 00:00
Orbit: 396 x 405 km, 51.6° (Epoch: 01 April)

Date Brightness Start Highest point End Pass type
(mag) Time Alt. Az. Time Alt. Az. Time Alt. Az.
01 Apr -1.0 05:16:31 11° SSW 05:16:31 11° SSW 05:16:45 10° S visible
04 Apr -2.0 20:49:35 10° SSW 20:51:51 22° SSE 20:51:51 22° SSE visible
05 Apr -2.8 21:31:29 10° SW 21:34:01 47° SSW 21:34:01 47° SSW visible
06 Apr -2.8 20:38:04 10° SW 20:41:08 40° SSE 20:43:13 18° E visible
06 Apr -1.4 22:14:13 10° W 22:15:50 26° W 22:15:50 26° W visible
07 Apr -3.4 21:20:28 10° WSW 21:23:45 83° NNW 21:24:46 41° ENE visible
07 Apr -0.1 22:57:07 10° WNW 22:57:21 12° WNW 22:57:21 12° WNW visible
08 Apr -3.4 20:26:48 10° WSW 20:30:03 69° SSE 20:33:18 10° ENE visible
08 Apr -2.4 22:03:19 10° W 22:06:04 48° NW 22:06:04 48° NW visible
09 Apr -2.9 21:09:29 10° W 21:12:43 62° N 21:14:38 22° ENE visible
09 Apr -0.7 22:46:06 10° WNW 22:47:13 19° WNW 22:47:13 19° WNW visible
10 Apr -3.2 20:15:38 10° WSW 20:18:54 79° NNW 20:22:11 10° ENE visible
10 Apr -2.8 21:52:17 10° WNW 21:55:29 53° N 21:55:39 52° NNE visible
